Oujda, Morocco

12:22 PM WET on June 24, 2017 (GMT +0000)
Oujda

Weather History for GMFO - April, 2014

Change the Weather History Date:

Sunday, April 6, 2014

  Actual Average Record
Temperature  
Mean Temperature 68 °F -  
Max Temperature 84 °F 70 °F 91 °F (2011)
Min Temperature 53 °F 47 °F 35 °F (2003)
Cooling Degree Days 4    
Growing Degree Days 18 (Base 50)    
Moisture  
Dew Point 53 °F    
Average Humidity 66    
Maximum Humidity 94    
Minimum Humidity 27    
Precipitation  
Precipitation 0.00 in 0.06 in - ()
Sea Level Pressure  
Sea Level Pressure 30.10 in    
Wind  
Wind Speed 5 mph ()    
Max Wind Speed 14 mph    
Max Gust Speed -    
Visibility 10.8 miles    
Events      
Averages and records for this station are not official NWS values.
T = Trace of Precipitation, MM = Missing Value Source: Averaged Metar Reports

Daily Weather History Graph

Daily Weather History Graph

Search for Another Location

Airport or City:

Trip Planner

Search our weather history database for the weather conditions in past years. The results will help you decide how hot, cold, wet, or windy it might be!

Date:

Astronomy

Apr. 06, 2014 Rise Set
Actual Time 6:48 AM WEST 7:32 PM WEST
Civil Twilight 6:22 AM WEST 7:58 PM WEST
Nautical Twilight 5:52 AM WEST 8:28 PM WEST
Astronomical Twilight 5:21 AM WEST 8:59 PM WEST
Moon 11:43 AM WEST (4/6) 1:10 AM WEST (4/6)
Length of Visible Light 13h 35m
Length of Day
12h 44m
Waxing Crescent, 41% of the Moon is Illuminated
Apr 6
Waxing Crescent
Apr 7
First Quarter
Apr 15
Full
Apr 22
Last Quarter
Apr 29
New

Hourly Weather History & Observations

Time (WEST) Temp. Heat Index Dew Point Humidity Pressure Visibility Wind Dir Wind Speed Gust Speed Precip Events Conditions
12:00 AM 55.4 °F - 51.8 °F 88% 30.15 in - SW 5.8 mph - N/A   Clear
12:47 AM 55 °F - 52 °F 84% 30.16 in 12 mi SW 6.9 mph - -   Clear
1:00 AM 55.4 °F - 51.8 °F 88% 30.15 in - SW 6.9 mph - N/A   Clear
3:00 AM 53.6 °F - 51.8 °F 94% 30.12 in - SSW 8.1 mph - N/A   Clear
4:00 AM 53 °F - 50 °F 86% 30.11 in 12 mi SW 1.2 mph - -  
4:00 AM 53.6 °F - 50.0 °F 88% 30.09 in - Variable 1.2 mph - N/A   Clear
5:00 AM 53.6 °F - 50.0 °F 88% 30.09 in - Variable 1.2 mph - N/A   Clear
8:00 AM 55.4 °F - 51.8 °F 88% 30.12 in - SSW 2.3 mph - N/A   Clear
9:00 AM 64.4 °F - 53.6 °F 68% 30.12 in - SSW 6.9 mph - N/A   Clear
10:00 AM 71 °F - 57 °F 53% 30.09 in 16 mi North 4.6 mph - -   Clear
10:00 AM 71.6 °F - 57.2 °F 60% 30.15 in - North 5.8 mph - N/A   Clear
11:00 AM 73.4 °F - 53.6 °F 50% 30.15 in - NNW 3.5 mph - N/A   Clear
3:00 PM 84.2 °F - 46.4 °F 27% 30.06 in 6.2 mi Variable 2.3 mph - N/A   Partly Cloudy
4:00 PM 83 °F - 57 °F 30% 29.97 in 16 mi North 12.7 mph - -   Scattered Clouds
4:00 PM 84.2 °F 83.5 °F 57.2 °F 40% 30.06 in 6.2 mi North 10.4 mph - N/A   Partly Cloudy
6:00 PM 78.8 °F - 53.6 °F 42% 30.06 in 6.2 mi North 13.8 mph - N/A   Partly Cloudy
7:00 PM 75.2 °F - 51.8 °F 44% 30.06 in 6.2 mi North 12.7 mph - N/A   Partly Cloudy
8:00 PM 69.8 °F - 57.2 °F 64% 30.09 in - NNW 8.1 mph - N/A   Clear
9:00 PM 68.0 °F - 53.6 °F 60% 30.12 in - NNW 5.8 mph - N/A   Clear
10:00 PM 63 °F - 53 °F 62% 30.10 in 16 mi SW 3.5 mph - -  
11:00 PM 60.8 °F - 51.8 °F 72% 30.12 in - WSW 5.8 mph - N/A   Clear